Startseite
Über Mich
AHP4
Galerie
Sehschlangen
Tourenbuch
Bookmarks
Elektronik
Bewertung
Geschichten
[Tagesmessung] [Jahreswerte] [Information]

Messwerte vom 22.01.2022

Die letzten Messwerte von 23:58:47 Uhr:
KategorieMesswert
Temperatur [°C]4
Luftdruck [mBar]1015
Sonneneinstrahlung0
Wind [km/h]4 aus West
Niederschlag [l/m²]0
rel.Luftfeucht.96.6%
CO2 [ppm]696

Diagramme
Messwerte vom 22.01.2022
Tagesaggregation
KategorieMinimumMaximumSchnittSumme
Temperatur [°C]465.1667
Luftdruck [mBar]100710161012.0042
Sonneneinstrahlung19754.3188
Wind [km/h]19
rF [%]96.696.696.6
Niederschlag [l/m²]2.3175
CO2 [ppm]401875559.3
Einordnung alsKalter Tag

Messungen an benachbarten Tagen: Zur Jahresaggregation 2022
Tabelle aller Messwerte
UhrzeitTemperatur [°C]Luftdruck [mBar]SonneWind [km/h]RichtungRegen [l/m²]rF [%]CO2 [ppm]
00:01:47 5 1008 0 7 SW 0 96.6 875
00:04:47 5 1008 0 13 N 0 96.6 875
00:07:48 5 1008 0 7 S 0 96.6 861
00:10:50 5 1009 0 8 W 0 96.6 858
00:13:47 5 1008 0 14 NW 0 96.6 849
00:16:46 5 1009 0 8 W 0 96.6 846
00:19:48 5 1009 0 4 W 0 96.6 849
00:22:49 5 1008 0 5 NW 0 96.6 839
00:25:46 5 1009 0 5 SW 0 96.6 838
00:28:47 5 1009 0 6 S 0 96.6 838
00:31:48 5 1009 0 8 NW 0 96.6 826
00:34:47 5 1009 0 6 O 0 96.6 817
00:37:48 5 1008 0 5 SW 0 96.6 808
00:40:48 5 1008 0 9 S 0 96.6 805
00:43:47 5 1008 0 8 W 0 96.6 807
00:46:47 5 1008 0 7 SW 0 96.6 802
00:49:45 5 1008 0 5 S 0 96.6 799
00:52:47 5 1008 0 2 SW 0 96.6 793
00:55:48 5 1008 0 6 NW 0 96.6 790
00:58:48 5 1009 0 12 SW 0 96.6 782
01:01:49 5 1009 0 10 W 0 96.6 772
01:04:45 5 1008 0 13 N 0 96.6 778
01:07:49 5 1009 0 16 W 0 96.6 769
01:10:47 5 1009 0 8 SW 0 96.6 762
01:13:48 5 1008 0 10 SW 0 96.6 756
01:16:47 5 1009 0 2 W 0 96.6 757
01:19:47 5 1008 0 6 NW 0 96.6 755
01:22:46 5 1008 0 5 SO 0 96.6 741
01:25:44 5 1008 0 9 W 0 96.6 734
01:28:47 5 1008 0 11 NW 0 96.6 733
01:31:47 5 1008 0 8 SO 0 96.6 738
01:34:48 5 1008 0 12 NW 0 96.6 731
01:37:48 5 1009 0 6 NW 0 96.6 723
01:40:48 5 1009 0 8 W 0 96.6 721
01:43:47 5 1008 0 5 W 0 96.6 721
01:46:45 5 1008 0 19 W 0 96.6 711
01:49:48 5 1007 0 10 NW 0 96.6 718
01:52:46 5 1008 0 3 W 0 96.6 711
01:55:49 5 1008 0 13 NW 0 96.6 715
01:58:49 5 1008 0 4 SW 0 96.6 703
02:01:51 5 1008 0 1 SW 0 96.6 702
02:04:48 5 1008 0 13 NW 0 96.6 697
02:07:48 5 1009 0 3 W 0 96.6 703
02:10:46 5 1008 0 3 S 0 96.6 708
02:13:49 5 1008 0 17 W 0 96.6 706
02:16:46 5 1008 0 6 SW 0 96.6 699
02:19:46 5 1010 0 5 NW 0 96.6 697
02:22:48 5 1008 0 10 W 0 96.6 696
02:25:50 5 1009 0 7 W 0 96.6 695
02:28:48 5 1008 0 16 NW 0 96.6 691
02:31:47 5 1008 0 6 W 0 96.6 693
02:34:49 5 1008 0 11 NW 0 96.6 691
02:37:48 5 1009 0 2 W 0 96.6 691
02:40:48 5 1009 0 13 W 0 96.6 679
02:43:48 5 1009 0 10 W 0 96.6 679
02:46:49 5 1009 0 10 NW 0 96.6 680
02:49:48 5 1009 0 6 NW 0 96.6 676
02:52:49 5 1009 0 15 NW 0 96.6 682
02:55:44 5 1009 0 10 W 0 96.6 676
02:58:48 5 1009 0 18 W 0 96.6 674
03:01:47 5 1009 0 6 W 0 96.6 665
03:04:47 5 1009 0 6 NW 0 96.6 659
03:07:50 5 1009 0 15 NW 0 96.6 659
03:10:48 5 1009 0 6 SW 0 96.6 650
03:13:50 5 1010 0 6 NW 0 96.6 656
03:16:49 5 1009 0 15 NW 0 96.6 656
03:19:49 5 1009 0 8 NW 0 96.6 658
03:22:46 5 1009 0 7 N 0 96.6 662
03:25:48 5 1009 0 5 W 0 96.6 657
03:28:48 5 1009 0 11 NW 0 96.6 650
03:31:45 5 1009 0 11 W 0 96.6 656
03:34:49 5 1009 0 13 NW 0 96.6 652
03:37:48 5 1009 0 7 W 0 96.6 650
03:40:48 5 1009 0 7 W 0.2575 96.6 650
03:43:48 5 1009 0 9 W 0 96.6 650
03:46:47 5 1010 0 6 SO 0 96.6 649
03:49:47 5 1010 0 19 W 0 96.6 650
03:52:48 5 1009 0 8 NW 0 96.6 649
03:55:50 5 1009 0 5 W 0 96.6 644
03:58:49 5 1009 0 12 SW 0 96.6 638
04:01:49 5 1009 0 10 NW 0 96.6 635
04:04:49 5 1010 0 3 NW 0 96.6 638
04:07:49 5 1010 0 7 NW 0 96.6 638
04:10:46 5 1010 0 4 W 0 96.6 636
04:13:46 5 1010 0 12 W 0 96.6 620
04:16:47 5 1009 0 9 SW 0 96.6 618
04:19:47 5 1010 0 5 W 0 96.6 615
04:22:49 5 1009 0 11 W 0 96.6 622
04:25:46 5 1010 0 5 NW 0 96.6 623
04:28:48 5 1009 0 12 NW 0 96.6 627
04:31:46 5 1010 0 6 N 0 96.6 618
04:34:45 5 1009 0 11 W 0 96.6 617
04:37:46 5 1010 0 4 W 0 96.6 621
04:40:47 5 1010 0 9 NW 0 96.6 626
04:43:46 5 1010 0 9 W 0 96.6 623
04:46:46 5 1009 0 2 N 0 96.6 627
04:49:46 5 1009 0 7 S 0 96.6 618
04:52:47 5 1010 0 2 SW 0 96.6 621
04:55:46 5 1010 0 6 W 0 96.6 615
04:58:44 5 1010 0 2 N 0 96.6 617
05:01:47 5 1010 0 6 NW 0 96.6 620
05:04:46 5 1010 0 3 N 0 96.6 620
05:07:44 5 1010 0 6 N 0 96.6 615
05:10:46 5 1010 0 7 NO 0 96.6 614
05:13:48 5 1010 0 6 NW 0 96.6 609
05:16:45 5 1010 0 0 O 0 96.6 615
05:19:48 5 1010 0 1 NW 0 96.6 611
05:22:47 5 1010 0 5 NW 0 96.6 615
05:25:46 5 1010 0 7 W 0 96.6 615
05:28:49 5 1010 0 5 NW 0 96.6 606
05:31:45 5 1010 0 8 NO 0 96.6 597
05:34:47 5 1010 0 6 NW 0 96.6 595
05:37:51 5 1010 0 10 NW 0 96.6 597
05:40:47 5 1010 0 6 NW 0 96.6 605
05:43:48 5 1010 0 10 W 0 96.6 606
05:46:46 5 1010 0 6 W 0 96.6 615
05:49:50 5 1010 0 5 NW 0 96.6 612
05:52:47 5 1010 0 4 NW 0 96.6 597
05:55:45 5 1010 0 1 W 0 96.6 597
05:58:46 5 1010 0 5 W 0 96.6 594
06:01:45 5 1010 0 2 N 0 96.6 606
06:04:49 5 1010 0 4 NW 0 96.6 606
06:07:48 5 1010 0 2 N 0 96.6 615
06:10:46 5 1010 0 3 NW 0 96.6 611
06:13:46 5 1010 0 4 N 0 96.6 618
06:16:48 5 1010 0 5 W 0 96.6 612
06:19:46 5 1010 0 4 N 0 96.6 609
06:22:45 5 1010 0 7 W 0 96.6 601
06:25:49 5 1010 0 4 SW 0 96.6 598
06:28:47 5 1010 0 4 O 0 96.6 596
06:31:45 5 1010 0 4 N 0 96.6 605
06:34:45 5 1010 0 8 N 0 96.6 600
06:37:46 5 1010 0 3 NW 0 96.6 597
06:40:48 5 1010 0 8 S 0 96.6 600
06:43:49 5 1010 0 9 N 0 96.6 598
06:46:47 5 1010 0 4 NW 0 96.6 600
06:49:47 5 1010 0 2 NW 0 96.6 598
06:52:45 5 1011 0 6 W 0 96.6 588
06:55:49 5 1010 0 4 NW 0 96.6 600
06:58:46 5 1010 0 4 0 96.6 606
07:01:50 5 1011 0 9 NW 0 96.6 606
07:04:47 5 1011 0 3 NW 0 96.6 609
07:07:45 5 1011 0 4 NO 0 96.6 611
07:10:46 5 1011 0 1 N 0 96.6 601
07:13:47 5 1011 0 6 NW 0 96.6 603
07:16:44 5 1010 0 1 N 0 96.6 594
07:19:47 5 1011 0 2 N 0 96.6 591
07:22:47 5 1011 0 0 N 0 96.6 598
07:25:47 5 1012 0 3 NO 0 96.6 629
07:28:45 5 1012 0 3 N 0 96.6 647
07:31:47 5 1011 0 2 NW 0 96.6 649
07:34:46 5 1010 0 2 N 0 96.6 647
07:37:48 5 1011 0 6 W 0 96.6 652
07:40:45 5 1011 0 2 N 0 96.6 659
07:43:46 5 1011 0 2 W 0 96.6 668
07:46:49 5 1011 0 4 NW 0 96.6 674
07:49:45 5 1011 0 5 W 0 96.6 682
07:52:48 5 1012 4 7 NW 0 96.6 679
07:55:44 5 1011 5 4 W 0 96.6 669
07:58:46 5 1011 7 6 W 0 96.6 669
08:01:49 5 1012 9 2 NW 0 96.6 671
08:04:49 5 1012 13 4 NW 0 96.6 665
08:07:46 5 1011 17 8 0 96.6 650
08:10:49 5 1012 21 3 NW 0 96.6 649
08:13:46 5 1011 23 3 W 0 96.6 645
08:16:49 5 1012 31 1 NW 0 96.6 659
08:19:47 5 1012 35 5 NW 0 96.6 651
08:22:45 5 1012 42 3 0 96.6 644
08:25:48 5 1012 46 3 W 0 96.6 641
08:28:48 5 1012 60 4 SW 0 96.6 629
08:31:46 5 1011 70 5 NW 0 96.6 624
08:34:46 5 1011 76 2 SW 0 96.6 617
08:37:50 5 1012 78 2 W 0 96.6 620
08:40:48 5 1011 83 2 SW 0 96.6 606
08:43:48 5 1010 84 3 NW 0 96.6 604
08:46:46 5 1011 87 2 W 0 96.6 597
08:49:47 5 1012 91 0 W 0 96.6 606
08:52:47 5 1012 93 6 W 0 96.6 610
08:55:48 5 1012 97 1 NW 0 96.6 606
08:58:50 5 1012 99 2 NW 0 96.6 601
09:01:47 5 1012 97 1 W 0 96.6 598
09:04:51 5 1012 106 3 NW 0 96.6 589
09:07:48 5 1012 113 3 NW 0 96.6 592
09:10:47 5 1012 119 3 W 0 96.6 583
09:13:47 5 1012 133 5 NW 0 96.6 585
09:16:47 5 1011 139 4 W 0 96.6 578
09:19:47 5 1012 146 5 W 0 96.6 577
09:22:46 5 1013 143 3 W 0 96.6 571
09:25:48 5 1012 146 4 W 0 96.6 568
09:28:48 5 1012 147 3 W 0 96.6 574
09:31:48 5 1012 146 6 W 0 96.6 574
09:34:48 5 1013 144 2 W 0 96.6 568
09:37:48 5 1012 147 2 W 0 96.6 565
09:40:47 5 1012 160 3 NW 0 96.6 565
09:43:51 5 1012 152 2 NW 0 96.6 559
09:46:50 5 1012 154 5 NW 0 96.6 553
09:49:48 5 1013 161 2 NW 0 96.6 547
09:52:48 5 1012 161 2 NW 0 96.6 539
09:55:48 5 1012 174 5 W 0 96.6 541
09:58:49 5 1012 178 4 W 0 96.6 536
10:01:48 5 1012 188 3 NW 0 96.6 536
10:04:47 6 1012 192 0 W 0 96.6 532
10:07:49 6 1013 195 3 NW 0 96.6 527
10:10:49 6 1012 186 10 NW 0 96.6 528
10:13:50 6 1012 193 6 SW 0 96.6 527
10:16:47 6 1012 197 7 NW 0 96.6 530
10:19:47 6 1013 194 4 NW 0 96.6 521
10:22:46 6 1012 183 5 0 96.6 516
10:25:46 6 1013 181 5 S 0 96.6 515
10:28:47 6 1013 177 4 NW 0 96.6 514
10:31:48 6 1012 171 15 W 0.2575 96.6 513
10:34:45 6 1013 168 4 N 0 96.6 512
10:37:47 6 1013 180 8 NW 0 96.6 506
10:40:48 6 1013 174 7 NW 0 96.6 503
10:43:46 6 1013 174 2 NW 0 96.6 507
10:46:46 6 1013 185 3 W 0 96.6 504
10:49:49 6 1012 182 7 NW 0 96.6 501
10:52:49 6 1013 182 5 NW 0 96.6 498
10:55:46 6 1013 184 8 NW 0 96.6 491
10:58:48 6 1013 180 3 NW 0 96.6 492
11:01:45 6 1013 178 6 N 0 96.6 495
11:04:47 6 1013 172 1 N 0 96.6 497
11:07:46 6 1013 172 4 NO 0 96.6 495
11:10:46 6 1013 167 0 N 0 96.6 491
11:13:46 6 1013 169 5 W 0 96.6 494
11:16:47 6 1013 167 8 NW 0 96.6 489
11:19:47 6 1013 166 6 NW 0 96.6 489
11:22:50 6 1013 165 2 NW 0 96.6 483
11:25:48 6 1013 163 3 SW 0 96.6 483
11:28:48 6 1013 158 9 NW 0 96.6 483
11:31:49 6 1013 161 2 NW 0 96.6 480
11:34:46 6 1013 157 5 W 0 96.6 469
11:37:47 6 1013 163 6 NW 0 96.6 471
11:40:46 6 1013 166 3 NW 0 96.6 466
11:43:48 6 1013 164 6 W 0 96.6 471
11:46:46 6 1013 169 4 W 0 96.6 471
11:49:47 6 1013 164 3 NW 0 96.6 472
11:52:46 6 1013 172 3 NW 0 96.6 474
11:55:45 6 1013 170 2 SO 0 96.6 471
11:58:46 6 1013 171 2 W 0 96.6 474
12:01:50 6 1013 177 1 W 0 96.6 472
12:04:46 6 1013 178 3 W 0 96.6 465
12:07:48 6 1013 179 3 W 0 96.6 468
12:10:49 6 1013 178 2 W 0 96.6 468
12:13:46 6 1013 179 2 W 0 96.6 470
12:16:47 6 1013 180 7 W 0 96.6 463
12:19:47 6 1013 176 3 W 0 96.6 454
12:22:46 6 1013 181 2 W 0 96.6 453
12:25:46 6 1013 176 5 W 0 96.6 454
12:28:47 6 1013 170 6 W 0 96.6 459
12:31:47 6 1013 180 4 NW 0 96.6 454
12:34:47 6 1013 177 2 W 0 96.6 454
12:37:46 6 1013 173 4 W 0 96.6 448
12:40:45 6 1013 171 3 W 0 96.6 447
12:43:47 6 1013 167 2 NW 0 96.6 450
12:46:46 6 1013 170 3 W 0.2575 96.6 454
12:49:49 6 1013 165 2 W 0 96.6 459
12:52:47 6 1013 170 1 SW 0 96.6 451
12:55:47 6 1013 176 3 W 0 96.6 448
12:58:46 6 1013 166 4 NW 0 96.6 439
13:01:48 6 1013 174 5 W 0 96.6 448
13:04:49 6 1013 184 3 NW 0 96.6 448
13:07:47 6 1013 188 7 W 0 96.6 447
13:10:49 6 1012 187 3 W 0 96.6 442
13:13:46 6 1013 175 0 SW 0 96.6 435
13:16:49 6 1013 182 2 W 0 96.6 436
13:19:48 6 1013 186 4 NW 0 96.6 440
13:22:49 6 1013 182 1 SW 0 96.6 439
13:25:48 6 1013 184 3 NW 0 96.6 442
13:28:46 6 1013 176 6 W 0 96.6 435
13:31:47 6 1013 174 2 NW 0 96.6 436
13:34:47 6 1013 169 6 W 0 96.6 439
13:37:46 6 1013 171 4 W 0 96.6 433
13:40:46 6 1013 176 3 NW 0 96.6 433
13:43:47 6 1013 174 5 SW 0 96.6 427
13:46:48 6 1013 173 5 NW 0 96.6 434
13:49:46 6 1013 176 6 W 0 96.6 433
13:52:50 6 1013 179 3 NW 0 96.6 433
13:55:46 6 1013 175 5 N 0 96.6 430
13:58:48 6 1013 178 11 NW 0 96.6 430
14:01:47 6 1013 180 9 W 0 96.6 425
14:04:47 6 1013 173 6 W 0 96.6 418
14:07:48 6 1013 173 3 NW 0 96.6 427
14:10:48 6 1013 171 3 SO 0 96.6 424
14:13:44 6 1013 171 4 W 0 96.6 421
14:16:46 6 1013 176 7 NW 0 96.6 415
14:19:46 6 1013 174 3 SW 0 96.6 418
14:22:50 6 1013 172 3 NW 0 96.6 422
14:25:47 6 1013 170 2 NW 0 96.6 422
14:28:50 6 1013 168 7 NW 0 96.6 413
14:31:48 6 1013 165 5 NW 0 96.6 413
14:34:47 6 1013 155 3 NW 0 96.6 418
14:37:45 6 1013 153 4 W 0 96.6 422
14:40:45 6 1013 143 1 W 0 96.6 415
14:43:44 6 1013 158 4 0 96.6 420
14:46:47 6 1013 171 4 W 0 96.6 407
14:49:51 6 1013 178 3 NW 0 96.6 407
14:52:46 6 1013 173 0 SW 0 96.6 413
14:55:47 6 1013 175 0 NW 0 96.6 415
14:58:46 6 1013 175 1 W 0 96.6 413
15:01:47 6 1013 172 2 W 0 96.6 410
15:04:48 6 1013 170 0 SW 0 96.6 410
15:07:49 6 1013 171 3 NW 0 96.6 416
15:10:48 6 1013 169 2 W 0 96.6 418
15:13:47 6 1013 170 4 S 0 96.6 419
15:16:50 6 1013 178 4 NW 0 96.6 409
15:19:47 6 1013 178 2 W 0 96.6 410
15:22:49 6 1013 165 1 W 0 96.6 407
15:25:48 6 1013 170 3 NW 0 96.6 410
15:28:46 6 1013 172 5 W 0 96.6 407
15:31:47 6 1013 171 4 NW 0 96.6 408
15:34:48 6 1013 165 5 NW 0 96.6 404
15:37:48 6 1013 149 5 W 0 96.6 407
15:40:49 6 1013 159 2 NW 0 96.6 403
15:43:47 6 1013 149 5 W 0 96.6 410
15:46:47 6 1013 150 9 W 0 96.6 409
15:49:45 6 1013 131 3 W 0 96.6 410
15:52:47 6 1013 113 3 W 0 96.6 410
15:55:46 6 1013 111 7 W 0 96.6 410
15:58:46 6 1013 99 3 NW 0.2575 96.6 409
16:01:46 6 1013 103 4 N 0 96.6 415
16:04:44 6 1013 111 5 N 0 96.6 412
16:07:46 6 1013 107 8 W 0 96.6 409
16:10:46 6 1013 90 6 W 0 96.6 406
16:13:47 6 1013 95 1 NW 0.2575 96.6 404
16:16:47 6 1013 106 4 NW 0 96.6 407
16:19:46 6 1013 102 4 W 0 96.6 404
16:22:46 6 1013 86 6 NW 0 96.6 407
16:25:45 6 1013 85 5 W 0 96.6 406
16:28:45 6 1013 94 5 W 0 96.6 407
16:31:46 6 1013 75 5 NW 0 96.6 407
16:34:46 6 1013 63 6 W 0 96.6 407
16:37:49 6 1013 81 3 SW 0 96.6 406
16:40:46 6 1013 68 5 W 0 96.6 407
16:43:46 6 1013 47 9 W 0 96.6 407
16:46:45 6 1013 46 7 W 0 96.6 404
16:49:46 6 1013 34 6 W 0 96.6 407
16:52:46 6 1013 39 4 W 0 96.6 406
16:55:45 5 1013 35 1 W 0 96.6 405
16:58:47 5 1013 15 4 W 0 96.6 407
17:01:54 5 1013 6 0 SW 0 96.6 404
17:04:46 5 1013 6 2 SW 0 96.6 406
17:07:48 5 1013 4 4 NW 0 96.6 406
17:10:46 5 1013 0 4 SW 0 96.6 404
17:13:46 5 1013 0 3 W 0 96.6 407
17:16:47 5 1013 0 1 SW 0 96.6 406
17:19:47 5 1013 0 2 SW 0 96.6 407
17:22:46 5 1013 0 4 W 0 96.6 404
17:25:45 5 1013 0 4 W 0 96.6 404
17:28:46 5 1013 0 3 SW 0 96.6 404
17:31:47 5 1014 0 2 NW 0 96.6 404
17:34:46 5 1013 0 0 W 0 96.6 404
17:37:46 5 1013 0 4 N 0 96.6 406
17:40:46 5 1013 0 2 SW 0 96.6 404
17:43:46 5 1013 0 10 NW 0 96.6 404
17:46:46 5 1013 0 2 W 0 96.6 407
17:49:48 5 1013 0 8 SW 0 96.6 407
17:52:46 5 1013 0 2 W 0 96.6 407
17:55:47 5 1014 0 3 SW 0 96.6 407
17:58:45 5 1014 0 3 W 0 96.6 407
18:01:45 5 1013 0 5 W 0 96.6 403
18:04:46 5 1013 0 2 SW 0 96.6 401
18:07:48 5 1013 0 5 NW 0 96.6 407
18:10:48 5 1013 0 4 S 0 96.6 406
18:13:48 5 1013 0 2 SW 0 96.6 401
18:16:46 5 1014 0 2 SW 0 96.6 407
18:19:47 5 1013 0 2 NW 0 96.6 407
18:22:48 5 1013 0 5 SW 0 96.6 404
18:25:48 5 1013 0 2 W 0 96.6 404
18:28:44 5 1013 0 4 W 0 96.6 405
18:31:47 5 1014 0 6 W 0 96.6 403
18:34:47 5 1013 0 3 W 0.2575 96.6 407
18:37:44 5 1013 0 1 W 0 96.6 407
18:40:45 5 1014 0 2 W 0 96.6 404
18:43:48 5 1014 0 1 W 0 96.6 404
18:46:45 5 1014 0 5 NW 0.2575 96.6 404
18:49:45 5 1014 0 3 W 0.2575 96.6 404
18:52:46 5 1013 0 5 W 0 96.6 404
18:55:47 5 1013 0 1 W 0 96.6 403
18:58:48 5 1014 0 8 W 0 96.6 407
19:01:46 5 1014 0 4 W 0 96.6 406
19:04:45 5 1014 0 3 W 0 96.6 406
19:07:46 5 1014 0 7 NW 0 96.6 407
19:10:46 5 1013 0 4 W 0 96.6 407
19:13:45 5 1014 0 3 N 0 96.6 404
19:16:46 5 1014 0 9 SW 0 96.6 404
19:19:44 5 1014 0 4 W 0 96.6 407
19:22:47 5 1014 0 5 NW 0 96.6 404
19:25:46 5 1014 0 5 NW 0 96.6 407
19:28:47 5 1014 0 4 NW 0 96.6 407
19:31:46 5 1013 0 5 W 0 96.6 404
19:34:48 5 1014 0 2 NW 0 96.6 407
19:37:47 5 1014 0 5 NW 0 96.6 415
19:40:48 5 1014 0 5 NW 0 96.6 408
19:43:44 5 1014 0 3 W 0 96.6 415
19:46:45 5 1014 0 1 NW 0 96.6 421
19:49:46 5 1013 0 4 W 0 96.6 442
19:52:47 5 1014 0 0 W 0 96.6 445
19:55:47 5 1014 0 2 SW 0 96.6 441
19:58:50 5 1015 0 2 SW 0 96.6 445
20:01:47 5 1014 0 1 W 0 96.6 446
20:04:45 5 1014 0 3 W 0 96.6 453
20:07:48 5 1014 0 9 NW 0 96.6 456
20:10:48 5 1014 0 4 NW 0 96.6 454
20:13:48 5 1014 0 6 W 0 96.6 448
20:16:48 5 1014 0 3 W 0.2575 96.6 451
20:19:47 5 1014 0 0 W 0 96.6 468
20:22:47 5 1015 0 2 NW 0 96.6 486
20:25:45 5 1014 0 4 W 0 96.6 493
20:28:47 5 1015 0 1 SW 0 96.6 490
20:31:47 5 1014 0 5 SW 0 96.6 495
20:34:46 5 1015 0 6 W 0 96.6 504
20:37:46 5 1015 0 5 W 0 96.6 515
20:40:45 5 1015 0 4 W 0 96.6 518
20:43:49 5 1014 0 2 NW 0 96.6 509
20:46:46 5 1014 0 7 NW 0 96.6 509
20:49:48 5 1014 0 2 NW 0 96.6 518
20:52:45 5 1014 0 2 W 0 96.6 522
20:55:47 5 1014 0 8 W 0 96.6 521
20:58:47 5 1014 0 14 SW 0 96.6 524
21:01:46 5 1014 0 10 SW 0 96.6 578
21:04:48 5 1014 0 8 W 0 96.6 578
21:07:48 5 1014 0 1 NW 0 96.6 591
21:10:48 4 1014 0 4 W 0 96.6 598
21:13:47 4 1014 0 2 SO 0 96.6 609
21:16:46 4 1013 0 6 NW 0 96.6 606
21:19:46 4 1014 0 4 SW 0 96.6 612
21:22:51 4 1014 0 7 NW 0 96.6 615
21:25:48 4 1014 0 2 SW 0 96.6 631
21:28:45 4 1014 0 5 W 0 96.6 619
21:31:46 4 1014 0 6 SW 0 96.6 630
21:34:48 4 1015 0 4 NW 0 96.6 636
21:37:46 4 1015 0 3 W 0 96.6 646
21:40:49 4 1014 0 1 W 0 96.6 638
21:43:45 4 1015 0 4 W 0 96.6 645
21:46:47 4 1014 0 2 NW 0 96.6 641
21:49:46 4 1014 0 7 W 0 96.6 641
21:52:45 4 1014 0 3 SO 0 96.6 641
21:55:46 4 1015 0 5 N 0 96.6 674
21:58:47 4 1014 0 1 W 0 96.6 685
22:01:46 4 1014 0 1 SW 0 96.6 682
22:04:46 4 1014 0 2 W 0 96.6 662
22:07:48 4 1015 0 2 NW 0 96.6 659
22:10:47 4 1014 0 2 W 0 96.6 658
22:13:46 4 1014 0 4 SW 0 96.6 671
22:16:46 4 1015 0 0 SW 0 96.6 673
22:19:45 4 1016 0 3 W 0 96.6 674
22:22:47 4 1015 0 5 W 0 96.6 671
22:25:49 4 1015 0 2 W 0 96.6 676
22:28:46 4 1015 0 4 W 0 96.6 674
22:31:45 4 1015 0 2 W 0 96.6 681
22:34:46 4 1015 0 1 W 0 96.6 680
22:37:45 4 1014 0 1 S 0 96.6 682
22:40:48 4 1015 0 0 W 0 96.6 680
22:43:49 4 1015 0 2 SW 0 96.6 683
22:46:46 4 1016 0 3 S 0 96.6 694
22:49:47 4 1016 0 2 SW 0 96.6 694
22:52:48 4 1014 0 1 N 0 96.6 703
22:55:46 4 1016 0 2 S 0 96.6 699
22:58:45 4 1014 0 2 N 0 96.6 705
23:01:47 4 1015 0 0 W 0 96.6 700
23:04:45 4 1014 0 4 W 0 96.6 697
23:07:46 4 1015 0 4 SW 0 96.6 699
23:10:47 4 1015 0 1 SW 0 96.6 708
23:13:47 4 1015 0 3 NW 0 96.6 712
23:16:45 4 1015 0 2 W 0 96.6 711
23:19:47 4 1015 0 3 SW 0 96.6 714
23:22:46 4 1015 0 1 W 0 96.6 700
23:25:46 4 1015 0 1 SO 0 96.6 706
23:28:45 4 1015 0 7 W 0 96.6 702
23:31:46 4 1015 0 0 W 0 96.6 700
23:34:46 4 1015 0 2 W 0 96.6 697
23:37:45 4 1015 0 2 W 0 96.6 699
23:40:45 4 1015 0 1 W 0 96.6 695
23:43:47 4 1015 0 2 W 0 96.6 702
23:46:44 4 1015 0 4 W 0 96.6 691
23:49:46 4 1015 0 3 W 0 96.6 700
23:52:48 4 1016 0 1 NW 0 96.6 703
23:55:47 4 1016 0 9 SW 0 96.6 706
23:58:47 4 1015 0 4 W 0 96.6 696

Letzte Änderung : 04-Jan-2022
Copyright Jens Köhler, Wolfsburg, Obere Dorfstraße 10d